Temperature
27 28 28 28 29 29 29 29 29 29 29 29 29 29 29 29 28 28 28 27 26 25 24 23 22 22 22 22 22 22 21 21 21 20 20 20 20 19 19 18 17 17 16 16
28 28 28 28 28 28 28 28 28 29 29 29 28 29 29 29 28 27 27 26 25 25 24 23 22 22 22 22 22 22 22 21 21 21 20 20 20 19 18 18 17 17 16 16
28 28 28 28 28 28 28 28 28 28 28 28 28 28 29 29 27 26 26 25 25 24 24 23 23 22 22 21 21 21 21 21 21 20 20 20 19 19 18 18 17 16 16 16
28 29 28 28 28 28 28 28 28 27 27 28 28 27 29 28 28 27 26 25 24 24 23 23 22 22 21 21 21 21 20 21 21 20 20 19 19 19 18 18 17 16 16 16
28 28 28 28 28 28 28 28 28 27 27 27 28 27 28 27 26 26 25 24 23 22 22 21 21 20 20 20 20 20 20 20 20 20 20 19 19 18 18 17 17 17 15 15
28 29 29 28 29 28 28 27 27 27 27 26 27 26 27 25 23 24 24 22 21 20 20 19 19 19 19 19 19 19 19 20 19 19 19 19 18 18 18 17 17 16 16 15
27 28 29 29 28 28 28 27 26 26 26 26 27 26 24 22 22 21 21 19 18 18 17 17 17 17 17 17 18 18 18 18 18 18 18 18 18 17 17 17 16 16 15 15
26 26 28 28 28 27 27 27 25 24 25 26 27 26 23 21 20 19 19 18 17 16 16 15 15 14 14 14 15 16 16 16 16 16 16 17 17 16 16 16 16 15 15 15
27 27 28 28 27 27 27 27 27 26 26 25 26 26 21 21 20 19 18 17 17 16 15 15 14 14 13 13 13 13 14 14 14 15 15 15 15 15 15 15 15 15 15 15
28 26 28 28 28 26 26 27 26 25 24 24 25 26 25 21 19 19 18 17 16 16 15 14 14 13 13 13 12 12 12 12 13 13 14 14 14 14 15 15 15 15 15 15
28 26 27 27 27 26 26 26 25 26 25 24 24 25 21 19 18 18 18 16 16 15 15 14 13 12 12 12 12 11 11 11 12 12 12 13 13 13 13 14 14 14 14 14
27 26 26 27 27 26 26 26 25 24 24 24 24 23 18 18 17 17 16 16 15 14 14 13 13 12 11 11 11 10 10 10 11 11 11 11 12 12 12 13 13 13 13 14
26 25 25 26 26 26 25 25 25 25 25 24 23 22 17 17 16 15 15 14 13 13 13 12 11 11 10 10 10 10 10 10 10 10 10 10 10 11 11 12 12 12 13 13
24 25 25 25 25 26 25 25 24 24 24 23 23 21 18 17 16 15 13 12 11 11 11 10 10 10 10 9 9 9 9 9 9 9 9 9 9 10 10 10 11 11 12 12
24 25 25 26 26 25 24 23 22 22 22 21 21 19 17 16 15 13 12 11 11 11 11 10 10 10 10 10 10 9 9 9 9 9 9 9 9 9 9 10 10 10 11 11
24 24 25 25 25 24 22 21 20 20 19 19 18 17 16 15 13 12 12 11 11 12 12 11 11 11 10 10 10 10 9 9 9 9 9 9 9 9 9 9 9 10 10 11
24 23 24 25 24 23 21 18 18 18 18 18 17 16 15 15 14 13 13 12 12 12 12 11 11 11 10 10 10 10 9 9 9 9 9 9 9 9 9 9 9 9 9 10
22 23 23 24 23 22 17 17 17 17 17 17 16 16 15 15 14 13 13 13 12 12 11 11 10 10 10 10 10 9 9 9 9 9 9 9 9 9 9 9 9 8 9 9
22 22 23 23 23 20 16 17 16 16 16 16 15 16 15 14 13 14 14 13 11 11 10 10 10 10 10 9 9 9 9 9 9 9 9 9 9 9 9 9 9 8 8 8
22 22 22 22 20 20 16 16 15 16 16 15 15 14 14 13 14 14 12 11 11 10 10 10 9 9 9 9 9 9 9 8 8 8 8 8 8 8 8 8 8 8 8 8
22 21 21 20 20 18 16 16 17 16 16 14 13 13 12 12 12 11 11 11 10 10 9 9 9 9 9 8 8 8 8 8 8 8 8 8 7 7 7 7 8 8 8 8
20 20 20 19 18 17 16 16 15 14 13 13 12 12 12 11 11 11 10 10 10 9 9 9 9 9 8 8 8 8 7 7 7 7 7 7 7 7 8 8 8 8 8 8
19 18 19 18 18 15 15 14 14 13 12 12 12 11 11 11 11 10 10 10 9 9 9 9 8 8 8 8 7 7 7 7 6 6 6 6 6 7 7 7 8 8 8 8
18 16 17 17 17 15 15 14 13 12 12 11 11 10 10 10 10 10 10 9 9 9 9 8 8 8 7 7 6 6 6 6 6 6 6 6 6 6 6 7 7 8 8 8
17 17 17 16 16 15 15 14 12 11 11 11 10 10 10 10 10 9 9 9 9 8 8 8 7 6 6 6 5 5 5 5 5 5 5 5 5 6 6 7 7 8 8 8
17 17 16 16 15 14 13 12 11 11 10 10 10 10 10 9 9 9 9 9 8 8 7 7 6 5 5 5 5 5 5 5 5 5 5 5 5 5 6 6 7 7 7 7
Wind_Speed
3 4 1 2 1 2 1 3 3 0 3 4 4 4 2 0 3 4 5 6 7 7 6 6 7 7 8 8 8 7 7 7 6 4 4 3 3 3 4 5 5 7 8 9
6 3 3 1 2 3 3 4 4 3 2 6 7 8 5 3 3 3 5 6 6 6 6 7 7 7 7 7 7 7 7 7 6 5 4 3 3 4 4 5 4 6 7 8
2 5 1 2 3 2 2 4 5 7 7 7 9 13 8 5 3 3 4 5 5 6 7 7 7 6 5 5 5 4 4 5 7 6 6 4 4 5 5 5 5 5 7 8
1 2 1 3 2 5 4 3 6 8 11 10 6 12 6 3 3 2 3 3 3 4 3 3 3 2 2 2 2 3 5 6 7 8 8 8 6 6 5 5 6 6 7 7
1 3 5 5 4 6 6 4 7 10 11 12 8 9 3 3 3 5 5 5 3 2 3 4 3 3 3 3 4 5 6 7 8 9 9 8 9 7 6 5 6 7 7 6
3 3 4 5 4 4 3 6 8 9 9 9 3 7 1 5 8 8 9 10 10 9 8 9 9 8 7 7 6 7 7 8 8 9 9 9 9 8 8 8 8 8 7 6
2 2 1 3 7 4 6 10 8 7 6 3 2 7 3 8 9 9 10 12 13 14 13 13 14 13 13 12 11 8 7 7 7 8 8 8 9 9 9 9 8 8 8 8
4 2 2 4 7 9 9 10 10 10 9 7 5 5 6 8 9 10 11 12 13 15 15 15 15 15 14 14 14 12 10 8 7 6 6 7 8 9 9 9 9 9 8 9
5 6 2 2 4 8 9 9 9 11 14 13 8 3 8 7 8 9 10 12 13 13 14 14 14 14 14 14 14 14 13 12 11 10 8 7 8 9 10 10 11 10 9 9
6 10 9 3 4 1 4 7 6 8 9 11 9 9 5 6 5 6 8 9 10 11 12 13 13 13 13 13 12 13 13 12 12 11 10 9 9 10 10 11 12 12 12 11
8 9 10 6 6 7 4 4 5 8 8 11 14 5 6 6 4 5 6 8 9 11 11 11 11 12 12 12 12 12 12 12 12 12 12 12 11 11 11 11 12 12 12 12
5 8 11 10 1 2 5 5 5 7 9 10 14 5 8 6 4 5 7 9 10 11 11 12 12 12 12 12 12 12 12 12 12 12 13 13 13 13 13 13 13 13 13 13
4 7 11 8 5 5 5 5 8 9 12 12 15 3 6 4 4 6 9 11 13 14 13 12 12 12 12 12 12 12 12 12 12 13 12 13 13 14 14 15 15 14 13 14
5 10 13 14 12 9 8 6 8 11 12 14 12 3 3 3 6 9 11 12 13 13 13 12 11 11 11 11 11 11 11 11 11 11 11 12 12 12 13 15 15 15 14 14
3 8 10 11 9 7 5 5 6 8 9 10 10 6 4 6 10 11 12 13 15 14 14 13 13 13 13 13 13 13 13 12 12 12 12 12 12 12 13 13 14 15 15 14
3 6 9 9 4 3 2 4 4 4 6 8 8 3 4 9 11 12 14 16 17 17 16 16 17 18 17 17 17 16 16 16 15 15 16 15 14 14 13 13 14 15 15 14
3 5 8 9 3 8 3 5 7 6 6 9 9 6 11 15 16 16 18 19 19 19 19 20 21 20 20 20 19 19 19 18 18 18 18 17 16 16 15 14 14 14 14 13
4 5 6 9 9 9 6 5 7 8 8 6 6 9 15 18 19 20 21 19 18 21 23 23 22 22 22 22 21 21 21 20 19 19 19 18 18 18 16 15 15 14 13 12
4 5 6 7 11 1 5 5 7 9 11 4 8 17 21 22 24 21 17 19 22 24 24 24 24 24 24 23 23 22 21 21 20 20 19 19 18 18 17 17 15 13 12 12
2 4 6 7 9 6 4 6 7 8 8 5 17 22 23 25 23 20 22 25 25 25 24 24 25 25 24 24 23 23 22 22 21 20 20 19 18 18 18 17 16 13 11 12
8 6 6 8 7 2 5 7 11 10 12 18 20 22 24 24 23 26 27 26 26 26 26 26 25 24 23 23 22 23 23 23 22 20 19 19 19 18 18 18 16 14 12 11
7 6 6 7 6 2 7 9 9 13 17 19 22 24 25 26 27 27 28 27 27 27 27 27 25 24 23 22 23 24 24 23 22 21 20 20 19 18 17 16 15 14 12 11
3 5 5 5 4 3 6 9 12 15 19 21 22 24 26 27 28 29 28 28 27 27 27 25 25 25 23 22 22 24 23 22 22 21 21 20 19 18 17 17 16 14 12 10
2 1 3 4 3 7 12 13 15 18 21 23 23 25 26 28 29 30 28 27 27 27 26 25 25 25 24 22 21 21 21 21 21 21 20 18 18 17 17 15 14 13 11 10
2 1 4 6 8 13 12 17 20 21 22 23 24 25 27 28 30 29 27 27 26 26 26 25 23 23 24 22 21 21 20 20 20 20 18 17 16 16 15 15 13 13 11 8
1 2 5 7 11 14 20 20 22 22 23 24 27 28 27 27 29 29 27 26 26 27 26 24 24 24 24 23 22 21 21 20 19 17 16 14 13 13 13 13 13 12 11 8
Wind_Direction
255 247 99 74 332 8 232 242 231 254 6 319 307 297 304 226 224 214 209 202 203 200 180 173 170 166 162 161 162 170 167 165 175 182 199 214 240 267 284 291 305 300 303 306
221 129 68 95 177 210 222 237 241 233 323 306 296 284 266 238 245 259 248 230 221 209 189 175 169 163 162 157 156 167 170 172 187 186 204 225 264 273 293 298 298 296 303 304
28 64 75 198 179 228 256 292 310 309 306 260 281 267 231 206 227 250 258 250 238 223 204 180 169 158 159 165 168 178 187 187 203 202 210 210 228 249 261 283 288 298 303 302
54 63 298 264 268 294 284 318 300 298 292 289 284 284 245 211 232 285 299 283 257 234 217 180 163 153 191 214 206 229 233 221 218 217 226 233 252 273 296 297 301 302 293 297
338 338 306 292 314 293 317 318 285 290 287 281 259 270 241 124 349 0 16 12 5 26 36 38 26 11 334 315 291 268 256 244 233 231 233 237 249 263 277 288 290 291 294 290
300 287 296 312 304 288 274 259 257 256 264 260 258 280 238 51 7 5 29 36 32 32 34 30 21 14 358 341 313 287 271 260 250 242 242 243 254 263 275 280 290 290 294 293
279 237 233 290 292 241 260 282 286 274 253 266 143 272 64 52 35 32 39 43 40 39 37 34 28 23 17 9 355 335 312 293 277 260 255 252 256 260 259 269 277 284 294 298
298 296 3 338 323 312 296 288 282 291 296 296 246 263 103 81 65 57 54 51 46 44 41 39 34 30 26 23 17 10 0 348 334 309 292 280 271 266 265 262 276 281 285 293
306 309 324 313 311 302 295 279 294 284 277 278 274 170 131 108 76 62 55 50 45 40 36 33 30 26 24 22 20 18 15 11 4 353 339 316 297 284 281 277 265 269 271 279
296 299 307 315 264 233 307 306 278 273 282 284 275 253 198 122 70 58 48 41 35 29 25 22 19 17 15 13 14 13 12 9 3 359 350 340 324 307 293 283 278 274 272 271
290 293 296 288 302 320 286 263 284 280 285 288 289 300 71 86 65 32 29 22 14 8 5 4 4 2 1 1 2 2 1 359 357 354 347 340 333 325 314 298 287 277 270 266
301 293 296 295 287 242 274 296 286 286 286 278 282 291 85 80 57 21 2 358 353 347 345 346 347 348 348 348 347 347 345 345 343 342 340 337 333 331 324 316 305 291 276 266
299 281 288 283 209 201 245 271 283 286 285 279 284 294 100 77 30 4 350 344 339 335 332 331 333 333 334 332 330 328 327 329 328 328 327 327 326 328 326 320 313 302 286 271
278 267 277 291 306 311 287 277 283 282 283 291 301 333 109 20 345 339 335 329 323 317 313 310 311 310 309 307 306 305 305 306 308 308 307 308 310 315 317 318 316 309 294 276
276 271 279 285 294 288 289 305 309 302 308 307 324 341 36 358 334 323 315 312 308 305 300 296 294 296 297 298 298 296 294 293 292 290 290 290 291 297 301 307 311 308 298 282
288 286 289 279 282 243 137 18 349 342 336 328 319 326 16 332 318 308 306 305 303 303 303 303 302 303 303 303 301 300 297 295 292 289 289 289 288 288 292 297 303 306 302 291
291 287 290 291 276 248 217 26 1 344 331 325 317 334 331 319 316 313 310 304 302 306 309 308 307 305 303 301 300 297 296 294 291 289 288 287 285 285 287 292 298 304 305 298
328 309 287 295 290 279 77 42 1 331 312 300 297 316 320 316 314 308 299 300 308 311 309 306 304 302 300 299 298 296 293 291 289 287 285 285 284 282 282 284 289 296 302 300
16 330 310 307 301 178 106 30 356 326 310 308 313 320 319 318 311 303 315 323 313 307 304 302 300 299 299 297 295 293 291 289 287 285 285 284 284 283 280 279 282 288 294 297
14 329 313 317 309 316 73 15 336 300 287 14 329 320 319 317 311 313 322 313 306 304 303 301 299 297 295 294 294 292 289 286 284 284 283 283 282 280 277 276 278 279 282 287
326 324 332 323 310 71 38 344 323 305 325 330 320 316 315 312 307 307 309 308 306 304 302 300 298 296 294 294 292 288 286 284 283 282 281 279 277 276 273 270 269 269 273 282
330 330 337 326 313 47 13 339 334 314 314 314 315 314 312 309 306 307 307 307 306 304 303 302 299 296 295 293 289 286 284 284 283 280 277 275 273 272 271 265 262 261 266 273
354 1 333 333 339 14 337 317 313 313 313 314 315 313 312 310 308 309 308 307 305 304 302 301 299 297 295 292 288 286 287 287 284 280 276 274 271 268 266 264 260 255 253 261
111 313 305 300 297 312 315 314 320 322 317 314 313 312 311 309 308 308 308 307 306 304 303 302 300 297 296 294 290 287 287 285 281 277 274 271 268 265 260 256 254 250 249 253
36 309 307 291 311 315 314 325 324 320 315 312 312 311 310 309 308 308 307 306 306 305 303 301 299 298 296 294 290 287 285 281 278 274 270 267 263 263 262 255 249 249 247 249
92 352 327 323 329 315 315 321 319 317 316 315 314 312 311 310 308 308 307 307 305 304 303 303 301 298 296 294 289 286 282 277 273 269 265 261 257 257 257 253 246 224 230 201
Height
1511 1507 1504 1503 1502 1501 1502 1502 1502 1501 1499 1498 1498 1496 1495 1497 1497 1497 1499 1501 1503 1506 1508 1509 1510 1512 1513 1514 1516 1518 1519 1520 1522 1524 1525 1526 1526 1525 1524 1522 1519 1516 1514 1511
1508 1505 1505 1505 1505 1504 1502 1504 1502 1500 1499 1499 1499 1496 1493 1496 1497 1498 1499 1500 1503 1505 1507 1508 1510 1511 1513 1514 1516 1517 1518 1520 1521 1522 1523 1523 1523 1522 1521 1518 1515 1512 1510 1507
1505 1506 1506 1504 1504 1504 1503 1503 1503 1504 1499 1497 1499 1496 1491 1493 1497 1499 1499 1501 1502 1504 1506 1508 1510 1511 1513 1514 1515 1517 1518 1519 1519 1520 1520 1520 1519 1518 1518 1516 1513 1509 1506 1503
1504 1504 1504 1503 1503 1503 1505 1501 1503 1504 1504 1499 1499 1504 1489 1490 1494 1497 1499 1501 1502 1505 1506 1508 1510 1511 1513 1514 1514 1515 1516 1516 1517 1517 1518 1518 1517 1516 1515 1512 1510 1506 1503 1500
1505 1504 1504 1504 1503 1503 1502 1502 1502 1502 1502 1503 1497 1501 1491 1492 1498 1498 1500 1503 1504 1505 1507 1508 1510 1511 1512 1513 1514 1514 1514 1514 1514 1514 1514 1514 1513 1513 1511 1508 1506 1502 1500 1497
1504 1504 1503 1502 1501 1502 1502 1503 1501 1499 1498 1507 1499 1504 1499 1502 1508 1505 1505 1507 1508 1508 1508 1509 1510 1510 1511 1511 1511 1511 1511 1510 1510 1510 1509 1509 1509 1508 1506 1504 1502 1500 1498 1495
1506 1502 1501 1502 1500 1500 1501 1506 1512 1510 1506 1503 1496 1502 1507 1512 1514 1513 1512 1513 1512 1511 1511 1510 1510 1509 1508 1508 1507 1507 1506 1505 1505 1504 1504 1503 1503 1502 1501 1500 1498 1496 1494 1491
1513 1512 1500 1500 1502 1504 1500 1504 1516 1523 1514 1501 1494 1498 1508 1514 1517 1518 1517 1517 1516 1515 1514 1513 1512 1511 1509 1507 1505 1503 1502 1501 1500 1499 1498 1497 1497 1497 1497 1495 1493 1491 1489 1487
1510 1510 1499 1501 1502 1502 1501 1498 1494 1503 1502 1505 1496 1496 1512 1514 1517 1519 1520 1519 1519 1519 1518 1516 1515 1513 1511 1509 1506 1504 1501 1499 1497 1496 1494 1493 1492 1491 1490 1488 1487 1486 1483 1481
1502 1510 1499 1498 1500 1502 1502 1498 1501 1503 1514 1513 1499 1495 1495 1510 1516 1519 1521 1522 1522 1521 1520 1518 1516 1514 1512 1510 1507 1504 1501 1499 1496 1494 1492 1490 1488 1486 1484 1482 1481 1479 1477 1475
1502 1509 1502 1497 1499 1501 1501 1501 1502 1499 1502 1512 1509 1500 1508 1514 1519 1520 1522 1523 1523 1522 1520 1519 1517 1514 1512 1509 1506 1503 1500 1497 1494 1492 1489 1486 1484 1481 1479 1477 1475 1473 1471 1469
1504 1505 1506 1497 1495 1499 1499 1499 1501 1509 1506 1501 1504 1504 1514 1517 1520 1523 1523 1523 1523 1522 1520 1518 1515 1512 1509 1506 1503 1500 1497 1494 1491 1488 1485 1482 1479 1476 1473 1471 1468 1466 1464 1462
1506 1510 1512 1502 1501 1499 1499 1498 1498 1498 1498 1500 1503 1507 1517 1520 1522 1524 1524 1523 1522 1519 1517 1514 1511 1508 1505 1502 1498 1495 1492 1488 1485 1483 1479 1477 1474 1470 1466 1464 1462 1459 1457 1455
1509 1506 1509 1511 1501 1495 1497 1499 1499 1499 1500 1498 1498 1504 1515 1519 1522 1524 1524 1522 1520 1516 1513 1509 1506 1503 1500 1496 1493 1489 1486 1482 1479 1476 1473 1469 1467 1463 1460 1457 1455 1452 1450 1449
1508 1503 1499 1496 1494 1496 1500 1503 1504 1503 1504 1506 1505 1509 1517 1522 1524 1524 1522 1519 1516 1512 1508 1505 1501 1498 1495 1491 1488 1484 1480 1477 1473 1470 1467 1463 1460 1457 1454 1451 1449 1446 1444 1442
1508 1505 1500 1498 1496 1498 1507 1511 1511 1513 1513 1512 1513 1518 1522 1524 1524 1521 1519 1515 1511 1507 1503 1500 1497 1493 1490 1486 1482 1479 1475 1472 1468 1465 1461 1458 1455 1453 1450 1447 1443 1440 1438 1435
1504 1507 1504 1498 1495 1500 1511 1522 1520 1520 1518 1518 1517 1521 1522 1521 1519 1516 1513 1509 1505 1502 1498 1495 1491 1488 1484 1480 1476 1472 1468 1465 1462 1458 1455 1452 1449 1446 1444 1442 1438 1435 1432 1429
1510 1507 1504 1499 1501 1509 1529 1526 1526 1523 1520 1519 1521 1521 1520 1517 1514 1512 1507 1502 1499 1497 1493 1489 1485 1480 1476 1472 1468 1464 1461 1457 1454 1450 1447 1444 1442 1439 1437 1435 1432 1429 1426 1423
1513 1510 1505 1504 1503 1510 1527 1527 1528 1527 1520 1519 1521 1519 1517 1513 1509 1503 1500 1499 1496 1492 1487 1482 1477 1473 1468 1464 1460 1455 1452 1448 1445 1442 1439 1436 1434 1431 1429 1428 1426 1423 1420 1417
1511 1511 1507 1509 1514 1514 1531 1529 1529 1528 1518 1521 1520 1517 1514 1510 1501 1496 1497 1494 1489 1484 1479 1474 1469 1464 1459 1454 1451 1446 1442 1439 1436 1433 1430 1428 1425 1423 1421 1419 1418 1416 1414 1411
1513 1511 1514 1515 1515 1520 1529 1529 1527 1524 1521 1521 1520 1516 1512 1507 1502 1496 1491 1486 1481 1476 1471 1465 1459 1454 1449 1445 1441 1436 1432 1429 1426 1423 1420 1418 1416 1414 1412 1411 1410 1408 1407 1405
1520 1517 1519 1518 1521 1528 1531 1527 1528 1528 1525 1521 1517 1513 1507 1502 1495 1489 1484 1478 1473 1467 1461 1456 1450 1444 1440 1435 1431 1425 1421 1418 1416 1413 1410 1408 1406 1405 1404 1402 1401 1401 1400 1399
1523 1528 1524 1526 1528 1531 1531 1530 1529 1526 1522 1518 1513 1508 1502 1495 1488 1482 1476 1469 1463 1458 1451 1446 1440 1433 1429 1425 1420 1415 1410 1408 1404 1402 1399 1397 1396 1395 1394 1394 1393 1393 1393 1392
1528 1533 1529 1528 1527 1529 1529 1526 1525 1523 1519 1514 1509 1503 1497 1489 1482 1474 1468 1461 1454 1448 1442 1436 1429 1423 1417 1413 1409 1404 1399 1396 1393 1390 1387 1386 1385 1384 1384 1384 1384 1385 1385 1385
1530 1531 1529 1528 1528 1528 1524 1524 1522 1518 1513 1508 1503 1498 1491 1483 1475 1468 1460 1452 1446 1439 1432 1426 1419 1412 1406 1401 1396 1391 1387 1384 1380 1377 1376 1375 1375 1374 1374 1375 1375 1376 1377 1378
1531 1532 1531 1529 1530 1529 1524 1521 1518 1513 1508 1502 1496 1489 1483 1477 1468 1460 1452 1445 1437 1429 1422 1415 1408 1401 1394 1388 1382 1378 1374 1371 1367 1365 1365 1364 1364 1365 1365 1366 1367 1367 1370 1370